[[{"header":{"parameterUnit":"m.s-1","parameterCategory":1,"la1":30.2991,"la2":30.254,"lo1":-89.0895,"lo2":-89.0444,"dy":0.0017,"dx":0.0017,"nx":28,"ny":28,"refTime":"2025-08-16T09:00:00:Z","depth":0,"parameterNumber":2,"parameterNumberName":"U-component_of_WINDS"},"data":[0,0,0,0,0,0,0,0,0,0,0,0,0,0,0,0,0,0,0,0,0,0,0,0,0,0,0,0,0,0,0,0,0,0,0,0,0,0,0,0,0,0,0,0,0,0,0,0,0,0,0,0,0,0,0,0,0,0,0.6698,0.6698,0,0.6637,0.6636,0.6635,0.6594,0.6594,0.6593,0.6593,0.6527,0.6525,0.6524,0,0,0,0,0,0,0,0,0,0,0,0,0,0.6778,0.6777,0.6698,0.6698,0.6697,0.6637,0.6636,0.6635,0.6594,0.6594,0.6593,0.6593,0.6527,0.6526,0.6524,0,0,0,0,0,0,0,0,0,0,0,0,0,0.6733,0.6777,0.6699,0.6669,0.6666,0.6637,0.6636,0.6635,0.6594,0.6594,0.6593,0.6593,0.6528,0.6526,0.6524,0.6518,0,0,0.6517,0.6516,0,0,0,0,0,0,0,0,0.6736,0.673,0.6674,0.6671,0.6667,0.6623,0.664,0.6596,0.6594,0.6621,0.6593,0.6593,0.6559,0.6554,0.6543,0.6515,0.6512,0.6517,0.6515,0.6514,0.6514,0,0,0,0,0,0,0,0.6739,0.6732,0.6674,0.6673,0.6669,0.6658,0.6651,0.6631,0.6593,0.6619,0.6616,0.6609,0.6557,0.6546,0.6542,0.6511,0.6517,0.6515,0.6513,0.6512,0.6477,0.6477,0,0,0,0,0,0,0.6747,0.6735,0.6676,0.6672,0.6701,0.6657,0.665,0.6637,0.6593,0.6586,0.661,0.6607,0.655,0.6544,0.6539,0.653,0.6514,0.6512,0.6511,0.6477,0.6477,0.6477,0,0,0,0,0,0,0.6749,0.6742,0.6678,0.6703,0.6694,0.6656,0.6643,0.6636,0.6625,0.6586,0.6579,0.6605,0.6549,0.6542,0.6524,0.6528,0.6511,0.6509,0.6476,0.6477,0.6477,0.6513,0,0,0,0,0,0,0.6751,0.6743,0.6741,0.6703,0.6693,0.6665,0.6643,0.6635,0.6622,0.6618,0.658,0.6573,0.6548,0.6528,0.6522,0.6524,0.6507,0.6476,0.6476,0.6477,0.6511,0.6515,0.6518,0,0,0,0,0,0.6754,0.6752,0.6741,0.6734,0.669,0.6665,0.6659,0.6631,0.6622,0.6619,0.6595,0.6575,0.6529,0.6526,0.6519,0.6521,0.6475,0.6476,0.6477,0.651,0.6514,0.6518,0,0,0,0,0,0,0.679,0.6747,0.6733,0.672,0.6697,0.6659,0.6654,0.6637,0.6615,0.6612,0.6578,0.6569,0.6555,0.6536,0.6535,0.6514,0.6499,0.6499,0.6527,0.6531,0.6534,0.6538,0.6505,0,0,0,0,0,0.6796,0.6781,0.6744,0.6735,0.6725,0.6692,0.668,0.6661,0.6635,0.6625,0.6599,0.6574,0.6554,0.6541,0.6521,0.6509,0.65,0.6507,0.651,0.6513,0.6512,0.6506,0.6508,0.648,0.648,0.648,0,0,0.6809,0.6784,0.6776,0.6742,0.6722,0.6706,0.6684,0.6668,0.6656,0.6622,0.6604,0.6584,0.6554,0.654,0.6532,0.6524,0.6519,0.6514,0.6516,0.6514,0.6507,0.651,0.6512,0.6481,0.6481,0.6481,0,0,0.6824,0.6803,0.6794,0.6775,0.6746,0.6724,0.6722,0.6687,0.6673,0.6655,0.6629,0.6615,0.6581,0.6561,0.6546,0.6556,0.6537,0.6551,0.6567,0.6561,0.6563,0.6564,0.6568,0.657,0.6551,0.6551,0.6551,0,0.6843,0.682,0.6792,0.6778,0.6764,0.6735,0.6725,0.6707,0.6672,0.6663,0.6655,0.6613,0.659,0.6571,0.6574,0.6563,0.6559,0.6554,0.6565,0.6566,0.6568,0.6571,0.6572,0.6553,0.6552,0.6552,0.6552,0,0.6845,0.6829,0.6825,0.6794,0.6779,0.6768,0.6738,0.6727,0.6709,0.6689,0.6671,0.6643,0.6617,0.6611,0.6593,0.659,0.6586,0.6572,0.6556,0.6573,0.6575,0.6576,0.6555,0.6555,0.6554,0.6554,0,0,0.6878,0.6834,0.6833,0.6819,0.6785,0.6772,0.676,0.6735,0.6726,0.6704,0.6692,0.6665,0.6653,0.6636,0.6616,0.6611,0.6621,0.6597,0.6596,0.6603,0.6616,0.6627,0.6629,0.6609,0.6609,0.6609,0.6619,0,0.6888,0.6865,0.6841,0.6826,0.6811,0.6784,0.6773,0.6751,0.6732,0.6717,0.6695,0.6677,0.6661,0.6651,0.6645,0.6621,0.6623,0.662,0.6597,0.6597,0.6605,0.663,0.664,0.6651,0.6619,0.6619,0.662,0,0.6896,0.6877,0.6861,0.683,0.6823,0.6814,0.6791,0.6776,0.6751,0.6737,0.6721,0.67,0.6685,0.6672,0.6652,0.665,0.6639,0.6627,0.6626,0.6622,0.6609,0.6626,0.6653,0.6655,0.6621,0.6621,0.6621,0,0.6923,0.6893,0.688,0.6868,0.6832,0.6826,0.6811,0.6785,0.6773,0.6752,0.6744,0.6721,0.6709,0.6692,0.6666,0.6659,0.6648,0.6633,0.6636,0.6637,0.6634,0.6634,0.6659,0.6628,0.6628,0.6628,0.6628,0,0.6936,0.6928,0.6891,0.6883,0.6873,0.6845,0.6836,0.6817,0.6796,0.6783,0.6758,0.6747,0.6713,0.6698,0.6677,0.6663,0.6658,0.6646,0.6641,0.6648,0.665,0.664,0.6638,0.6628,0.6628,0.6628,0.6628,0,0.6963,0.6939,0.6923,0.6891,0.6882,0.6876,0.6848,0.6839,0.682,0.6805,0.6799,0.6768,0.6749,0.6722,0.6694,0.668,0.6669,0.6661,0.6678,0.6675,0.668,0.668,0.6699,0.67,0.6669,0.6669,0.6669,0,0.6973,0.6966,0.6934,0.6925,0.6911,0.6896,0.6883,0.6856,0.6844,0.6816,0.6811,0.679,0.6772,0.6743,0.6717,0.6696,0.6687,0.6695,0.6683,0.6691,0.6687,0.6687,0.6686,0.6697,0.6698,0.6698,0.6699,0,0.6993,0.6982,0.6966,0.6946,0.6932,0.6915,0.6896,0.689,0.6858,0.6846,0.6827,0.6814,0.6787,0.6766,0.6742,0.6725,0.6707,0.6703,0.6703,0.671,0.672,0.6715,0.6686,0.6702,0.6702,0.6702,0.6701,0.6701,0.7012,0.7005,0.6982,0.6965,0.6948,0.6932,0.6922,0.6903,0.6887,0.6863,0.6848,0.683,0.6806,0.6772,0.6757,0.6742,0.6734,0.6733,0.6733,0.6733,0.6736,0.6724,0.6737,0.6737,0.6737,0.6737,0.6737,0,0.7031,0.7015,0.7,0.6975,0.6962,0.6948,0.6927,0.6917,0.6902,0.6881,0.6865,0.6844,0.6825,0.6799,0.6777,0.6771,0.6762,0.6766,0.6766,0.6762,0.6744,0.6747,0.6774,0.6774,0.6774,0.6774,0.6774,0.6774,0.7039,0.7026,0.7013,0.6992,0.6976,0.696,0.6949,0.6934,0.6918,0.6896,0.688,0.6864,0.6841,0.6819,0.6801,0.6794,0.6787,0.6794,0.6784,0.6767,0.6764,0.676,0.6762,0.6793,0.6793,0.6803,0.6803,0.6804]},{"header":{"parameterUnit":"m.s-1","parameterCategory":1,"la1":30.2991,"la2":30.254,"lo1":-89.0895,"lo2":-89.0444,"dy":0.0017,"dx":0.0017,"nx":28,"ny":28,"refTime":"2025-08-16T09:00:00:Z","depth":0,"parameterNumber":3,"parameterNumberName":"V-component_of_WINDS"},"data":[0,0,0,0,0,0,0,0,0,0,0,0,0,0,0,0,0,0,0,0,0,0,0,0,0,0,0,0,0,0,0,0,0,0,0,0,0,0,0,0,0,0,0,0,0,0,0,0,0,0,0,0,0,0,0,0,0,0,-2.455,-2.4551,0,-2.4584,-2.4585,-2.4585,-2.454,-2.4539,-2.4537,-2.4536,-2.4568,-2.4571,-2.4573,0,0,0,0,0,0,0,0,0,0,0,0,0,-2.4444,-2.4446,-2.455,-2.4551,-2.4551,-2.4584,-2.4585,-2.4585,-2.4541,-2.4539,-2.4537,-2.4535,-2.4568,-2.457,-2.4573,0,0,0,0,0,0,0,0,0,0,0,0,0,-2.4485,-2.4447,-2.455,-2.4533,-2.4532,-2.4584,-2.4585,-2.4585,-2.4541,-2.4539,-2.4536,-2.4534,-2.4567,-2.457,-2.4574,-2.4644,0,0,-2.4584,-2.4586,0,0,0,0,0,0,0,0,-2.4483,-2.4489,-2.4535,-2.4534,-2.4533,-2.4556,-2.4559,-2.4605,-2.4542,-2.4537,-2.4536,-2.4533,-2.4566,-2.4569,-2.4581,-2.4645,-2.4647,-2.4585,-2.4587,-2.4588,-2.4589,0,0,0,0,0,0,0,-2.448,-2.4487,-2.4564,-2.4536,-2.4535,-2.4523,-2.4526,-2.4568,-2.4565,-2.4538,-2.4535,-2.4539,-2.4565,-2.4578,-2.4581,-2.4647,-2.4585,-2.4588,-2.459,-2.4591,-2.4771,-2.4773,0,0,0,0,0,0,-2.448,-2.4485,-2.4563,-2.4565,-2.4502,-2.4527,-2.453,-2.4551,-2.4564,-2.4564,-2.4541,-2.4537,-2.4573,-2.4577,-2.4582,-2.4666,-2.4588,-2.4592,-2.4594,-2.4768,-2.4771,-2.4774,0,0,0,0,0,0,-2.4478,-2.4487,-2.4561,-2.4524,-2.4533,-2.4531,-2.4555,-2.4553,-2.4566,-2.4567,-2.4566,-2.4555,-2.4571,-2.4577,-2.4629,-2.4666,-2.4593,-2.4597,-2.4765,-2.4769,-2.4773,-2.4833,0,0,0,0,0,0,-2.4475,-2.4486,-2.4514,-2.4525,-2.4535,-2.4608,-2.4557,-2.4555,-2.4572,-2.4567,-2.458,-2.4579,-2.457,-2.4624,-2.4633,-2.467,-2.4599,-2.4762,-2.4767,-2.4771,-2.4827,-2.4838,-2.4847,0,0,0,0,0,-2.4471,-2.4529,-2.4515,-2.4525,-2.4569,-2.461,-2.4616,-2.4604,-2.4575,-2.4602,-2.4603,-2.4579,-2.4661,-2.463,-2.4639,-2.4678,-2.4759,-2.4765,-2.4771,-2.4823,-2.4836,-2.4847,0,0,0,0,0,0,-2.4521,-2.453,-2.4515,-2.4579,-2.4594,-2.4603,-2.4637,-2.4618,-2.4642,-2.4636,-2.4619,-2.4623,-2.4678,-2.4683,-2.4648,-2.4746,-2.4705,-2.4713,-2.4741,-2.4754,-2.4764,-2.4761,-2.4602,0,0,0,0,0,-2.454,-2.4573,-2.4579,-2.4634,-2.4643,-2.4639,-2.4656,-2.4646,-2.4661,-2.4667,-2.4671,-2.4686,-2.4715,-2.4735,-2.4761,-2.4828,-2.483,-2.4859,-2.4869,-2.4877,-2.4884,-2.492,-2.4933,-2.4793,-2.4793,-2.4793,0,0,-2.4578,-2.4587,-2.4609,-2.4645,-2.4655,-2.469,-2.4644,-2.4683,-2.4708,-2.4672,-2.4722,-2.4726,-2.4741,-2.4801,-2.4827,-2.4806,-2.4923,-2.4885,-2.4891,-2.4894,-2.4927,-2.494,-2.4952,-2.4798,-2.4797,-2.4796,0,0,-2.4666,-2.4676,-2.4724,-2.4736,-2.4753,-2.475,-2.4761,-2.4772,-2.4774,-2.4823,-2.4797,-2.4826,-2.4877,-2.4889,-2.4902,-2.4994,-2.4972,-2.5003,-2.5055,-2.509,-2.5101,-2.511,-2.5143,-2.5155,-2.501,-2.501,-2.501,0,-2.4711,-2.4763,-2.475,-2.479,-2.4807,-2.4777,-2.4824,-2.4836,-2.4861,-2.4872,-2.4849,-2.4911,-2.492,-2.4981,-2.5004,-2.5015,-2.5027,-2.5001,-2.51,-2.511,-2.5119,-2.515,-2.5162,-2.5014,-2.5013,-2.5013,-2.5013,0,-2.4818,-2.4854,-2.489,-2.4916,-2.4936,-2.498,-2.4972,-2.4994,-2.4982,-2.4981,-2.5031,-2.504,-2.5068,-2.5082,-2.507,-2.5142,-2.5128,-2.5103,-2.5061,-2.5136,-2.5165,-2.5177,-2.5019,-2.5018,-2.5016,-2.5016,0,0,-2.4939,-2.4957,-2.497,-2.4981,-2.4998,-2.5025,-2.5067,-2.5095,-2.5114,-2.5132,-2.5167,-2.521,-2.5187,-2.5201,-2.519,-2.522,-2.5293,-2.5191,-2.5191,-2.521,-2.5373,-2.5392,-2.5406,-2.5279,-2.5281,-2.5283,-2.5371,0,-2.5026,-2.51,-2.509,-2.516,-2.5193,-2.5165,-2.5202,-2.5216,-2.5216,-2.5243,-2.5242,-2.5273,-2.524,-2.5249,-2.5278,-2.5278,-2.5325,-2.5271,-2.531,-2.5312,-2.5308,-2.5421,-2.5442,-2.5525,-2.5383,-2.5385,-2.5386,0,-2.5139,-2.5162,-2.5236,-2.5248,-2.5261,-2.5295,-2.5319,-2.5346,-2.5361,-2.5359,-2.5375,-2.5359,-2.54,-2.5357,-2.5413,-2.5377,-2.5392,-2.5395,-2.5397,-2.5401,-2.5354,-2.5428,-2.5551,-2.5564,-2.5404,-2.5402,-2.5401,0,-2.522,-2.5269,-2.532,-2.533,-2.5345,-2.5369,-2.5376,-2.5389,-2.5406,-2.5428,-2.5439,-2.5464,-2.5478,-2.5498,-2.5489,-2.5459,-2.5547,-2.5503,-2.5546,-2.5546,-2.5566,-2.5565,-2.5694,-2.5575,-2.5575,-2.5575,-2.5574,0,-2.5319,-2.5366,-2.5357,-2.5388,-2.5439,-2.5426,-2.5476,-2.548,-2.5491,-2.5522,-2.5499,-2.5528,-2.5514,-2.5542,-2.5535,-2.5582,-2.5589,-2.5588,-2.5585,-2.559,-2.559,-2.56,-2.5594,-2.5578,-2.5577,-2.5577,-2.5576,0,-2.5418,-2.5414,-2.5468,-2.5477,-2.5481,-2.5518,-2.5526,-2.5555,-2.5553,-2.5593,-2.5601,-2.5598,-2.563,-2.5622,-2.5657,-2.5652,-2.5712,-2.5702,-2.5707,-2.5705,-2.5748,-2.5744,-2.5888,-2.5906,-2.5776,-2.5777,-2.5778,0,-2.5482,-2.5518,-2.5531,-2.5551,-2.556,-2.5592,-2.561,-2.5598,-2.5617,-2.5637,-2.5663,-2.5693,-2.5717,-2.5769,-2.5769,-2.5795,-2.5786,-2.5834,-2.579,-2.5793,-2.5787,-2.5785,-2.5788,-2.5843,-2.5845,-2.5846,-2.5847,0,-2.5596,-2.5592,-2.562,-2.5647,-2.5669,-2.5689,-2.5707,-2.5724,-2.5713,-2.5737,-2.5769,-2.5788,-2.5823,-2.5853,-2.5877,-2.5883,-2.5864,-2.5861,-2.5872,-2.5878,-2.588,-2.588,-2.5732,-2.5858,-2.5857,-2.5856,-2.5856,-2.5855,-2.568,-2.571,-2.5725,-2.5756,-2.5768,-2.5785,-2.5813,-2.5815,-2.5843,-2.5871,-2.5862,-2.59,-2.5913,-2.5943,-2.5953,-2.5981,-2.5963,-2.5979,-2.5983,-2.5987,-2.5993,-2.5875,-2.5985,-2.5985,-2.5985,-2.5984,-2.5984,0,-2.5793,-2.5801,-2.583,-2.5856,-2.5881,-2.586,-2.5879,-2.5901,-2.5934,-2.5949,-2.5972,-2.601,-2.6039,-2.6041,-2.6068,-2.6091,-2.6082,-2.6098,-2.6096,-2.6098,-2.6008,-2.5995,-2.6104,-2.6104,-2.6104,-2.6104,-2.6104,-2.6104,-2.5855,-2.5905,-2.5903,-2.5958,-2.5965,-2.6003,-2.6015,-2.6031,-2.6042,-2.6086,-2.611,-2.6112,-2.6121,-2.6149,-2.6174,-2.6174,-2.6185,-2.6205,-2.6201,-2.6117,-2.6105,-2.6093,-2.6082,-2.6207,-2.6207,-2.6289,-2.629,-2.6291]}]]